User: anonymous   Login
Location: C�mpuri de-Sus
(45.9500°N, 22.5500°E)
Time: 23:01:33
(UTC+00:00)
Language:

Meteor 1-21 Rocket - Orbit

View from above orbital plane
View from above orbital plane
View from above satellite
View from above satellite

Ground track
Ground track

The orbit data is extracted from the following two-line orbital elements,

1 07715U 75023B   22026.51642373 -.00000085  00000-0 -58153-4 0  9991
2 07715  81.2197  35.3619 0053008  74.7993 285.9029 14.06811626402165
Epoch (UTC): 26 January 2022 12:23:39
Eccentricity: 0.0053008
inclination: 81.2197°
perigee height: 832 km
apogee height: 909 km
right ascension of ascending node: 35.3619°
argument of perigee: 74.7993°
revolutions per day: 14.06811626
mean anomaly at epoch: 285.9029°
orbit number at epoch: 40216

The dashed part of the orbit path shows where the satellite is in the earth's shadow,  

DLR